Weather in Angarka

Russia / Chukotka Autonomous Okrug     67°20′13″N   164°00′20″E
temp.,
°C
wind,
m/s
gust,
m/s
humid.,
%
clouds,
%
prec.,
mm/h
press.,
hPa
HPBL,
m
22 october, fri
fri2200:00−20wnw229993 0.1 101029
03:00−20w1298100 0.1 100977
06:00−20w129899 0.4 100964
09:00−20w119997 0.1 100928
12:00−18wsw119398 0.3 1009188
15:00−17sw129195 0.1 1009230
18:00−20sw1110095 0.1 10109
21:00−22w1110099 0.1 10109
23 october, sat
sat2300:00−23w0010097 0.1 10119
03:00−25nw0010091 0.0 10129
06:00−26ne0010096 0.1 10139
09:00−28ene1110099 0.0 10149
12:00−23se119968 0.0 101350
15:00−23ese11976 0.0 10149
18:00−28ne1110025 0.0 10159
21:00−29ne1110048 0.0 10169
24 october, sun
sun2400:00−30ne1110028 0.0 10179
03:00−31ne1110045 0.0 10189
06:00−31ene1110047 0.0 10189
09:00−32ene1110051 0.0 10199
12:00−25e119625 0.0 101846
15:00−24ese11977 0.0 10179
18:00−29ene1110042 0.0 10189
21:00−30ene1110054 0.0 10189
25 october, mon
mon2500:00−31ene1110081 0.0 10189
03:00−32ene1110081 0.0 10179
06:00−32ene1110081 0.0 10169
09:00−32ene1110081 0.0 10159
12:00−25e219963 0.0 101451
15:00−24e119951 0.0 101211
18:00−28ene1110049 0.0 10139
21:00−29ene1110081 0.0 10139
26 october, tue
tue2600:00−30ene1110079 0.0 10139
03:00−31ene1110080 0.0 10139
06:00−31ene1110079 0.0 10149
09:00−31ne1110063 0.0 10149
12:00−24ese109727 0.0 101435
15:00−24ssw00986 0.0 10149
18:00−29wnw1110037 0.0 10179
21:00−30nw0010068 0.0 10189